START_TIME,STEP,MOV.,AL01,t_acc.,AL02,t_acc.,E37,t_acc.,H21,t_acc.
1979-08-07 21:00:32.770 ,0,0,0.,24.0,0.,24.0,0.,24.0,0.,24.0
1979-08-07 21:00:56.770 ,0,1,0.,24.0,0.,24.0,1.,24.0,0.,24.0
1979-08-07 21:01:20.770 ,0,0,1.,24.0,0.,24.0,0.,24.0,0.,24.0
1979-08-07 21:01:44.770 ,1,1,1.,24.0,0.,24.0,2.,24.0,0.,24.0
1979-08-07 21:02:08.760 ,1,0,0.,24.0,0.,24.0,0.,24.0,0.,24.0
1979-08-07 21:02:32.760 ,2,1,0.,24.0,0.,24.0,1.,24.0,0.,24.0
1979-08-07 21:02:56.760 ,2,0,0.,24.0,0.,24.0,0.,24.0,0.,24.0
1979-08-07 21:03:20.760 ,3,1,0.,24.0,0.,24.0,1.,24.0,0.,24.0
1979-08-07 21:03:44.760 ,3,0,0.,24.0,0.,24.0,0.,24.0,0.,24.0
1979-08-07 21:04:08.760 ,4,1,2.,24.0,1.,24.0,0.,24.0,0.,24.0
1979-08-07 21:04:32.770 ,4,0,0.,24.0,0.,24.0,0.,24.0,0.,24.0
1979-08-07 21:04:56.770 ,5,1,0.,24.0,0.,24.0,0.,24.0,0.,24.0
1979-08-07 21:05:20.770 ,5,0,0.,24.0,0.,24.0,1.,24.0,0.,24.0
1979-08-07 21:05:44.770 ,6,1,0.,24.0,0.,24.0,0.,24.0,0.,24.0
1979-08-07 21:06:08.760 ,6,0,0.,24.0,0.,24.0,0.,24.0,0.,24.0
1979-08-07 21:06:32.770 ,7,0,7.,24.0,0.,24.0,1.,24.0,0.,24.0
1979-08-07 21:06:56.770 ,0,0,24.,24.0,0.,24.0,0.,24.0,0.,24.0
1979-08-07 21:16:27.960 ,0,0,,0,,0,,0,,0
1979-08-07 21:16:32.770 ,6,1,0.,24.0,1.,24.0,0.,24.0,0.,24.0
1979-08-07 21:16:56.770 ,5,1,10.,24.0,1.,24.0,0.,24.0,0.,24.0
1979-08-07 21:17:20.770 ,1,1,0.,24.0,0.,24.0,0.,24.0,0.,24.0
1979-08-07 21:17:44.770 ,0,0,0.,24.0,0.,24.0,0.,24.0,0.,24.0
1979-08-07 21:18:08.770 ,0,0,0.,24.0,0.,24.0,0.,24.0,0.,24.0
1979-08-07 21:18:32.760 ,5,1,14.,24.0,0.,24.0,1.,24.0,0.,24.0
1979-08-07 21:18:56.760 ,5,0,0.,24.0,0.,24.0,0.,24.0,0.,24.0
1979-08-07 21:19:20.760 ,4,1,0.,24.0,0.,24.0,0.,24.0,0.,24.0
1979-08-07 21:19:44.760 ,4,0,0.,24.0,0.,24.0,1.,24.0,0.,24.0
1979-08-07 21:20:08.760 ,3,1,0.,24.0,0.,24.0,1.,24.0,0.,24.0
1979-08-07 21:20:32.760 ,3,0,0.,24.0,0.,24.0,0.,24.0,0.,24.0
1979-08-07 21:20:56.760 ,2,1,0.,24.0,0.,24.0,0.,24.0,0.,24.0
1979-08-07 21:21:20.760 ,2,0,0.,24.0,0.,24.0,1.,24.0,0.,24.0
1979-08-07 21:21:44.760 ,1,1,0.,24.0,0.,24.0,1.,24.0,0.,24.0
1979-08-07 21:22:08.760 ,1,0,0.,24.0,0.,24.0,0.,24.0,0.,24.0
1979-08-07 21:22:32.760 ,0,1,0.,24.0,0.,24.0,1.,24.0,0.,24.0
1979-08-07 21:22:56.760 ,0,0,0.,24.0,0.,24.0,0.,24.0,0.,24.0
1979-08-07 21:23:20.760 ,0,1,0.,24.0,0.,24.0,0.,24.0,0.,24.0
1979-08-07 21:23:44.760 ,0,0,0.,24.0,0.,24.0,0.,24.0,0.,24.0
1979-08-07 21:24:08.760 ,1,1,0.,24.0,0.,24.0,1.,24.0,0.,24.0
1979-08-07 21:24:32.760 ,1,0,0.,24.0,0.,24.0,0.,24.0,0.,24.0
1979-08-07 21:24:56.760 ,2,1,0.,24.0,0.,24.0,0.,24.0,0.,24.0
1979-08-07 21:25:20.760 ,2,0,0.,24.0,0.,24.0,0.,24.0,0.,24.0
1979-08-07 21:25:44.760 ,3,1,0.,24.0,0.,24.0,1.,24.0,0.,24.0
1979-08-07 21:26:08.760 ,3,0,0.,24.0,0.,24.0,1.,24.0,0.,24.0
1979-08-07 21:26:32.760 ,4,1,0.,24.0,0.,24.0,0.,24.0,0.,24.0
1979-08-07 21:26:56.760 ,4,0,1.,24.0,0.,24.0,0.,24.0,0.,24.0
1979-08-07 21:27:20.760 ,5,1,0.,24.0,0.,24.0,0.,24.0,0.,24.0
1979-08-07 21:27:44.760 ,5,0,0.,24.0,0.,24.0,0.,24.0,0.,24.0
1979-08-07 21:28:08.760 ,6,1,0.,24.0,0.,24.0,1.,24.0,0.,24.0
1979-08-07 21:28:32.760 ,6,0,0.,24.0,0.,24.0,1.,24.0,0.,24.0
1979-08-07 21:28:56.760 ,7,1,4.,24.0,1.,24.0,0.,24.0,0.,24.0
1979-08-07 21:29:20.760 ,7,0,30.,24.0,0.,24.0,0.,24.0,0.,24.0
1979-08-07 21:30:32.760 ,0,0,30.,24.0,1.,24.0,0.,24.0,0.,24.0
1979-08-07 21:30:56.760 ,0,0,0.,24.0,0.,24.0,0.,24.0,0.,24.0
1979-08-07 21:31:20.760 ,5,1,0.,24.0,0.,24.0,0.,24.0,0.,24.0
1979-08-07 21:31:44.760 ,5,0,0.,24.0,0.,24.0,1.,24.0,0.,24.0
1979-08-07 21:32:08.760 ,4,1,0.,24.0,0.,24.0,0.,24.0,0.,24.0
1979-08-07 21:32:32.760 ,4,0,0.,24.0,0.,24.0,0.,24.0,0.,24.0
1979-08-07 21:32:56.760 ,3,1,0.,24.0,0.,24.0,0.,24.0,0.,24.0
1979-08-07 21:33:20.760 ,3,0,0.,24.0,0.,24.0,0.,24.0,0.,24.0
1979-08-07 21:33:44.760 ,2,1,0.,24.0,0.,24.0,1.,24.0,0.,24.0
1979-08-07 21:34:08.760 ,2,0,0.,24.0,0.,24.0,2.,24.0,0.,24.0
1979-08-07 21:34:32.760 ,1,1,1.,24.0,0.,24.0,0.,24.0,0.,24.0
1979-08-07 21:34:56.760 ,1,0,0.,24.0,0.,24.0,0.,24.0,0.,24.0
1979-08-07 21:35:20.760 ,0,1,0.,24.0,0.,24.0,0.,24.0,0.,24.0
1979-08-07 21:35:44.760 ,0,0,0.,24.0,0.,24.0,0.,24.0,0.,24.0
1979-08-07 21:36:08.760 ,0,1,0.,24.0,0.,24.0,0.,24.0,0.,24.0
1979-08-07 21:36:32.760 ,0,0,1.,24.0,0.,24.0,0.,24.0,0.,24.0
1979-08-07 21:36:56.760 ,1,1,0.,24.0,0.,24.0,0.,24.0,0.,24.0
1979-08-07 21:37:20.760 ,1,0,0.,24.0,0.,24.0,0.,24.0,0.,24.0
1979-08-07 21:37:44.760 ,2,1,0.,24.0,0.,24.0,1.,24.0,0.,24.0
1979-08-07 21:38:08.760 ,2,0,0.,24.0,0.,24.0,0.,24.0,0.,24.0
1979-08-07 21:38:32.760 ,3,1,0.,24.0,0.,24.0,0.,24.0,0.,24.0
1979-08-07 21:38:56.760 ,3,0,0.,24.0,0.,24.0,0.,24.0,0.,24.0
1979-08-07 21:39:20.760 ,4,1,0.,24.0,0.,24.0,0.,24.0,0.,24.0
1979-08-07 21:39:44.760 ,4,0,0.,24.0,0.,24.0,0.,24.0,0.,24.0
1979-08-07 21:40:08.760 ,5,1,0.,24.0,0.,24.0,0.,24.0,0.,24.0
1979-08-07 21:40:32.760 ,5,0,0.,24.0,0.,24.0,0.,24.0,0.,24.0
1979-08-07 21:40:56.760 ,6,1,0.,24.0,0.,24.0,0.,24.0,0.,24.0
1979-08-07 21:41:20.760 ,6,0,0.,24.0,0.,24.0,0.,24.0,0.,24.0
1979-08-07 21:41:44.760 ,7,1,3.,24.0,0.,24.0,0.,24.0,0.,24.0
1979-08-07 21:42:08.760 ,7,0,32.,24.0,0.,24.0,0.,24.0,0.,24.0
1979-08-07 21:42:32.760 ,7,1,30.,24.0,0.,24.0,0.,24.0,0.,24.0
1979-08-07 21:42:56.760 ,7,0,33.,24.0,0.,24.0,0.,24.0,0.,24.0
1979-08-07 21:43:20.760 ,6,1,21.,24.0,0.,24.0,0.,24.0,0.,24.0
1979-08-07 21:43:44.760 ,6,0,0.,24.0,0.,24.0,0.,24.0,0.,24.0
1979-08-07 21:44:08.760 ,5,1,0.,24.0,1.,24.0,0.,24.0,0.,24.0
1979-08-07 21:44:32.760 ,5,0,1.,24.0,0.,24.0,0.,24.0,0.,24.0
1979-08-07 21:44:56.760 ,4,1,0.,24.0,0.,24.0,0.,24.0,0.,24.0
1979-08-07 21:45:20.760 ,4,0,0.,24.0,0.,24.0,1.,24.0,0.,24.0
1979-08-07 21:45:44.760 ,3,1,0.,24.0,1.,24.0,0.,24.0,0.,24.0
1979-08-07 21:46:08.760 ,3,0,0.,24.0,0.,24.0,0.,24.0,0.,24.0
1979-08-07 21:46:32.760 ,2,1,0.,24.0,0.,24.0,0.,24.0,0.,24.0
1979-08-07 21:46:56.760 ,2,0,1.,24.0,0.,24.0,0.,24.0,0.,24.0
1979-08-07 21:47:20.760 ,1,1,0.,24.0,0.,24.0,0.,24.0,0.,24.0
1979-08-07 21:47:44.760 ,1,0,0.,24.0,0.,24.0,0.,24.0,0.,24.0
1979-08-07 21:48:08.760 ,0,1,1.,24.0,0.,24.0,1.,24.0,0.,24.0
1979-08-07 21:48:32.760 ,0,0,0.,24.0,0.,24.0,1.,24.0,0.,24.0
1979-08-07 21:48:56.760 ,0,1,0.,24.0,0.,24.0,1.,24.0,0.,24.0
1979-08-07 21:49:20.760 ,0,0,0.,24.0,0.,24.0,1.,24.0,0.,24.0
1979-08-07 21:49:44.760 ,1,1,0.,24.0,0.,24.0,0.,24.0,0.,24.0
1979-08-07 21:50:08.760 ,1,0,1.,24.0,0.,24.0,0.,24.0,0.,24.0
1979-08-07 21:50:32.760 ,2,1,0.,24.0,0.,24.0,1.,24.0,0.,24.0
1979-08-07 21:50:56.760 ,2,0,0.,24.0,0.,24.0,0.,24.0,0.,24.0
1979-08-07 21:51:20.760 ,3,1,0.,24.0,0.,24.0,0.,24.0,0.,24.0
1979-08-07 21:51:44.760 ,3,0,0.,24.0,0.,24.0,1.,24.0,0.,24.0
1979-08-07 21:52:08.760 ,4,1,0.,24.0,0.,24.0,0.,24.0,0.,24.0
1979-08-07 21:52:32.760 ,4,0,0.,24.0,0.,24.0,1.,24.0,0.,24.0
1979-08-07 21:52:56.760 ,5,1,0.,24.0,0.,24.0,0.,24.0,0.,24.0
1979-08-07 21:53:20.760 ,5,0,0.,24.0,0.,24.0,0.,24.0,0.,24.0
1979-08-07 21:53:44.760 ,6,1,0.,24.0,1.,24.0,0.,24.0,0.,24.0
1979-08-07 21:54:08.760 ,6,0,0.,24.0,0.,24.0,0.,24.0,0.,24.0
1979-08-07 21:54:32.760 ,7,0,9.,24.0,0.,24.0,0.,24.0,0.,24.0
1979-08-07 21:54:56.760 ,7,0,36.,24.0,0.,24.0,0.,24.0,0.,24.0
1979-08-07 21:55:20.760 ,5,1,14.,24.0,0.,24.0,0.,24.0,0.,24.0
1979-08-07 21:55:44.760 ,1,1,0.,24.0,0.,24.0,0.,24.0,0.,24.0
1979-08-07 21:56:08.760 ,2,1,0.,24.0,0.,24.0,0.,24.0,0.,24.0
1979-08-07 21:56:32.760 ,6,1,0.,24.0,0.,24.0,0.,24.0,0.,24.0
1979-08-07 21:56:56.760 ,5,1,30.,24.0,0.,24.0,1.,24.0,0.,24.0
1979-08-07 21:57:20.760 ,1,1,0.,24.0,0.,24.0,3.,24.0,0.,24.0
1979-08-07 21:57:44.760 ,2,1,0.,24.0,0.,24.0,0.,24.0,0.,24.0
1979-08-07 21:58:08.760 ,6,1,0.,24.0,0.,24.0,0.,24.0,0.,24.0
1979-08-07 21:58:32.760 ,5,1,15.,24.0,0.,24.0,0.,24.0,0.,24.0
1979-08-07 21:58:56.760 ,1,1,0.,24.0,0.,24.0,0.,24.0,0.,24.0
1979-08-07 21:59:20.760 ,2,1,1.,24.0,0.,24.0,0.,24.0,0.,24.0
1979-08-07 21:59:44.760 ,6,1,1.,24.0,0.,24.0,0.,24.0,0.,24.0
1979-08-07 22:00:08.760 ,5,1,15.,24.0,0.,24.0,1.,24.0,0.,24.0
1979-08-07 22:00:32.760 ,1,1,0.,24.0,0.,24.0,1.,24.0,0.,24.0
1979-08-07 22:00:56.760 ,2,1,0.,24.0,0.,24.0,0.,24.0,0.,24.0
1979-08-07 22:01:20.760 ,6,1,0.,24.0,0.,24.0,0.,24.0,0.,24.0
1979-08-07 22:01:44.760 ,5,1,12.,24.0,0.,24.0,1.,24.0,0.,24.0
1979-08-07 22:02:08.760 ,1,1,0.,24.0,0.,24.0,1.,24.0,0.,24.0
1979-08-07 22:02:32.760 ,2,1,0.,24.0,0.,24.0,1.,24.0,0.,24.0
1979-08-07 22:02:56.760 ,6,1,0.,24.0,0.,24.0,0.,24.0,0.,24.0
1979-08-07 22:03:20.760 ,5,1,14.,24.0,0.,24.0,0.,24.0,0.,24.0
1979-08-07 22:03:44.760 ,1,1,0.,24.0,0.,24.0,2.,24.0,0.,24.0
1979-08-07 22:04:08.760 ,2,1,0.,24.0,0.,24.0,0.,24.0,0.,24.0
1979-08-07 22:04:32.760 ,6,1,0.,24.0,0.,24.0,0.,24.0,0.,24.0
1979-08-07 22:04:56.760 ,5,1,20.,24.0,0.,24.0,0.,24.0,0.,24.0
1979-08-07 22:05:20.760 ,1,1,0.,24.0,0.,24.0,0.,24.0,0.,24.0
1979-08-07 22:05:44.760 ,0,0,0.,24.0,0.,24.0,0.,24.0,0.,24.0
1979-08-07 22:06:08.760 ,0,0,0.,24.0,1.,24.0,0.,24.0,0.,24.0
1979-08-07 22:06:32.760 ,5,1,19.,24.0,0.,24.0,2.,24.0,0.,24.0
1979-08-07 22:06:56.760 ,5,0,0.,24.0,0.,24.0,0.,24.0,0.,24.0
1979-08-07 22:07:20.760 ,4,1,0.,24.0,0.,24.0,1.,24.0,0.,24.0
1979-08-07 22:07:44.760 ,4,0,0.,24.0,0.,24.0,1.,24.0,0.,24.0
1979-08-07 22:08:08.760 ,3,1,0.,24.0,0.,24.0,1.,24.0,0.,24.0
1979-08-07 22:08:32.760 ,3,0,0.,24.0,0.,24.0,0.,24.0,0.,24.0
1979-08-07 22:08:56.760 ,2,1,0.,24.0,0.,24.0,2.,24.0,0.,24.0
1979-08-07 22:09:20.760 ,2,0,0.,24.0,0.,24.0,0.,24.0,0.,24.0
1979-08-07 22:09:44.760 ,1,1,0.,24.0,0.,24.0,1.,24.0,0.,24.0
1979-08-07 22:10:08.760 ,1,0,0.,24.0,0.,24.0,1.,24.0,0.,24.0
1979-08-07 22:10:32.760 ,0,1,0.,24.0,0.,24.0,1.,24.0,0.,24.0
1979-08-07 22:10:56.760 ,0,0,0.,24.0,0.,24.0,0.,24.0,0.,24.0
1979-08-07 22:11:20.760 ,0,1,0.,24.0,0.,24.0,0.,24.0,0.,24.0
1979-08-07 22:11:44.760 ,0,0,0.,24.0,0.,24.0,0.,24.0,0.,24.0
1979-08-07 22:12:08.760 ,1,1,0.,24.0,0.,24.0,0.,24.0,0.,24.0
1979-08-07 22:12:32.760 ,1,0,0.,24.0,0.,24.0,2.,24.0,0.,24.0
1979-08-07 22:12:56.760 ,2,1,0.,24.0,0.,24.0,0.,24.0,0.,24.0
1979-08-07 22:13:20.760 ,2,0,0.,24.0,0.,24.0,0.,24.0,0.,24.0
1979-08-07 22:13:44.760 ,3,1,0.,24.0,0.,24.0,0.,24.0,0.,24.0
1979-08-07 22:14:08.760 ,3,0,0.,24.0,0.,24.0,0.,24.0,0.,24.0
1979-08-07 22:14:32.760 ,4,1,0.,24.0,1.,24.0,1.,24.0,0.,24.0
1979-08-07 22:14:56.760 ,4,0,0.,24.0,0.,24.0,0.,24.0,0.,24.0
1979-08-07 22:15:20.760 ,5,1,0.,24.0,0.,24.0,0.,24.0,0.,24.0
1979-08-07 22:15:44.760 ,5,0,0.,24.0,0.,24.0,0.,24.0,0.,24.0
1979-08-07 22:16:08.760 ,6,1,0.,24.0,0.,24.0,0.,24.0,0.,24.0
1979-08-07 22:16:32.760 ,6,0,0.,24.0,0.,24.0,0.,24.0,0.,24.0
1979-08-07 22:16:56.760 ,7,1,6.,24.0,0.,24.0,2.,24.0,0.,24.0
1979-08-07 22:17:20.760 ,7,0,23.,24.0,0.,24.0,0.,24.0,0.,24.0
1979-08-07 22:17:44.760 ,7,1,35.,24.0,0.,24.0,1.,24.0,0.,24.0
1979-08-07 22:18:08.760 ,7,0,35.,24.0,0.,24.0,0.,24.0,0.,24.0
1979-08-07 22:18:32.760 ,6,1,28.,24.0,0.,24.0,0.,24.0,0.,24.0
1979-08-07 22:18:56.760 ,6,0,0.,24.0,0.,24.0,2.,24.0,0.,24.0
1979-08-07 22:19:20.760 ,5,1,0.,24.0,0.,24.0,0.,24.0,0.,24.0
1979-08-07 22:19:44.760 ,5,0,0.,24.0,0.,24.0,0.,24.0,0.,24.0
1979-08-07 22:20:08.760 ,4,1,0.,24.0,0.,24.0,0.,24.0,0.,24.0
1979-08-07 22:20:32.760 ,4,0,0.,24.0,0.,24.0,1.,24.0,0.,24.0
1979-08-07 22:20:56.760 ,3,1,1.,24.0,0.,24.0,0.,24.0,0.,24.0
1979-08-07 22:21:20.760 ,3,0,0.,24.0,0.,24.0,1.,24.0,0.,24.0
1979-08-07 22:21:44.760 ,2,1,0.,24.0,0.,24.0,0.,24.0,0.,24.0
1979-08-07 22:22:08.760 ,2,0,0.,24.0,0.,24.0,2.,24.0,0.,24.0
1979-08-07 22:22:32.760 ,1,1,0.,24.0,0.,24.0,1.,24.0,0.,24.0
1979-08-07 22:22:56.760 ,1,0,0.,24.0,0.,24.0,0.,24.0,0.,24.0
1979-08-07 22:23:20.760 ,0,1,0.,24.0,0.,24.0,0.,24.0,0.,24.0
1979-08-07 22:23:44.760 ,0,0,0.,24.0,0.,24.0,0.,24.0,0.,24.0
1979-08-07 22:24:08.760 ,0,1,0.,24.0,0.,24.0,2.,24.0,0.,24.0
1979-08-07 22:24:32.760 ,0,0,0.,24.0,0.,24.0,0.,24.0,0.,24.0
1979-08-07 22:24:56.760 ,1,1,0.,24.0,0.,24.0,0.,24.0,0.,24.0
1979-08-07 22:25:20.760 ,1,0,0.,24.0,0.,24.0,0.,24.0,0.,24.0
1979-08-07 22:25:44.760 ,2,1,0.,24.0,0.,24.0,0.,24.0,0.,24.0
1979-08-07 22:26:08.760 ,2,0,0.,24.0,0.,24.0,0.,24.0,0.,24.0
1979-08-07 22:26:32.760 ,3,1,0.,24.0,0.,24.0,0.,24.0,0.,24.0
1979-08-07 22:26:56.760 ,3,0,0.,24.0,0.,24.0,0.,24.0,0.,24.0
1979-08-07 22:27:20.760 ,4,1,0.,24.0,0.,24.0,2.,24.0,0.,24.0
1979-08-07 22:27:44.760 ,4,0,0.,24.0,0.,24.0,0.,24.0,0.,24.0
1979-08-07 22:28:08.760 ,5,1,1.,24.0,0.,24.0,2.,24.0,0.,24.0
1979-08-07 22:28:32.760 ,5,0,0.,24.0,0.,24.0,0.,24.0,0.,24.0
1979-08-07 22:28:56.760 ,6,1,0.,24.0,0.,24.0,1.,24.0,0.,24.0
1979-08-07 22:29:20.760 ,6,0,0.,24.0,0.,24.0,0.,24.0,0.,24.0
1979-08-07 22:29:44.760 ,0,0,9.,24.0,0.,24.0,0.,24.0,0.,24.0
1979-08-07 22:30:08.760 ,0,0,31.,24.0,0.,24.0,1.,24.0,0.,24.0
1979-08-07 22:30:32.760 ,7,1,31.,24.0,0.,24.0,0.,24.0,0.,24.0
1979-08-07 22:30:56.760 ,7,0,29.,24.0,0.,24.0,0.,24.0,0.,24.0
1979-08-07 22:31:20.760 ,6,1,17.,24.0,0.,24.0,0.,24.0,0.,24.0
1979-08-07 22:31:44.760 ,6,0,0.,24.0,0.,24.0,0.,24.0,0.,24.0
1979-08-07 22:32:08.760 ,5,1,0.,24.0,0.,24.0,0.,24.0,0.,24.0
1979-08-07 22:32:32.760 ,5,0,0.,24.0,0.,24.0,0.,24.0,0.,24.0
1979-08-07 22:32:56.760 ,4,1,0.,24.0,0.,24.0,0.,24.0,0.,24.0
1979-08-07 22:33:20.760 ,4,0,0.,24.0,0.,24.0,0.,24.0,0.,24.0
1979-08-07 22:33:44.760 ,3,1,1.,24.0,0.,24.0,0.,24.0,0.,24.0
1979-08-07 22:34:08.760 ,3,0,0.,24.0,0.,24.0,1.,24.0,0.,24.0
1979-08-07 22:34:32.760 ,2,1,0.,24.0,0.,24.0,0.,24.0,0.,24.0
1979-08-07 22:34:56.760 ,2,0,0.,24.0,0.,24.0,1.,24.0,0.,24.0
1979-08-07 22:35:20.760 ,1,1,0.,24.0,0.,24.0,2.,24.0,0.,24.0
1979-08-07 22:35:44.760 ,1,0,0.,24.0,0.,24.0,0.,24.0,0.,24.0
1979-08-07 22:36:08.760 ,0,1,0.,24.0,0.,24.0,1.,24.0,0.,24.0
1979-08-07 22:36:32.760 ,0,0,0.,24.0,0.,24.0,1.,24.0,0.,24.0
1979-08-07 22:36:56.760 ,0,0,0.,24.0,0.,24.0,0.,24.0,0.,24.0
1979-08-07 22:37:20.760 ,0,0,,0,,0,,0,,0
1979-08-07 22:37:48.360 ,0,0,0.,24.0,0.,24.0,0.,24.0,0.,24.0
1979-08-07 22:38:08.760 ,0,0,0.,24.0,0.,24.0,0.,24.0,0.,24.0
1979-08-07 22:38:32.760 ,2,1,0.,24.0,0.,24.0,0.,24.0,0.,24.0
1979-08-07 22:38:56.760 ,2,0,0.,24.0,1.,24.0,0.,24.0,0.,24.0
1979-08-07 22:39:20.760 ,3,1,0.,24.0,0.,24.0,1.,24.0,0.,24.0
1979-08-07 22:39:44.760 ,3,0,0.,24.0,0.,24.0,0.,24.0,0.,24.0
1979-08-07 22:40:08.760 ,4,1,0.,24.0,0.,24.0,0.,24.0,0.,24.0
1979-08-07 22:40:32.760 ,4,0,0.,24.0,0.,24.0,3.,24.0,0.,24.0
1979-08-07 22:40:56.760 ,5,1,0.,24.0,0.,24.0,1.,24.0,0.,24.0
1979-08-07 22:41:20.760 ,5,0,0.,24.0,0.,24.0,0.,24.0,0.,24.0
1979-08-07 22:41:44.760 ,6,1,1.,24.0,0.,24.0,1.,24.0,0.,24.0
1979-08-07 22:42:08.760 ,6,0,0.,24.0,0.,24.0,1.,24.0,0.,24.0
1979-08-07 22:42:32.760 ,7,0,7.,24.0,0.,24.0,0.,24.0,0.,24.0
1979-08-07 22:42:56.760 ,7,0,47.,24.0,0.,24.0,1.,24.0,0.,24.0
1979-08-07 22:43:20.760 ,5,1,16.,24.0,0.,24.0,2.,24.0,0.,24.0
1979-08-07 22:43:44.760 ,1,1,0.,24.0,0.,24.0,0.,24.0,0.,24.0
1979-08-07 22:44:08.760 ,2,1,0.,24.0,0.,24.0,0.,24.0,0.,24.0
1979-08-07 22:44:32.760 ,6,1,0.,24.0,0.,24.0,1.,24.0,0.,24.0
1979-08-07 22:44:56.760 ,5,1,14.,24.0,0.,24.0,0.,24.0,0.,24.0
1979-08-07 22:45:20.760 ,1,1,0.,24.0,0.,24.0,1.,24.0,0.,24.0
1979-08-07 22:45:44.760 ,2,1,0.,24.0,0.,24.0,1.,24.0,0.,24.0
1979-08-07 22:46:08.760 ,6,1,0.,24.0,0.,24.0,0.,24.0,0.,24.0
1979-08-07 22:46:32.760 ,5,1,20.,24.0,0.,24.0,0.,24.0,0.,24.0
1979-08-07 22:46:56.760 ,1,1,0.,24.0,0.,24.0,0.,24.0,0.,24.0
1979-08-07 22:47:20.760 ,2,1,0.,24.0,0.,24.0,0.,24.0,0.,24.0
1979-08-07 22:47:44.760 ,6,1,1.,24.0,0.,24.0,0.,24.0,0.,24.0
1979-08-07 22:48:08.760 ,5,1,16.,24.0,0.,24.0,0.,24.0,0.,24.0
1979-08-07 22:48:32.760 ,1,1,0.,24.0,0.,24.0,1.,24.0,0.,24.0
1979-08-07 22:48:56.760 ,2,1,0.,24.0,0.,24.0,1.,24.0,0.,24.0
1979-08-07 22:49:20.760 ,6,1,0.,24.0,0.,24.0,0.,24.0,0.,24.0
1979-08-07 22:49:44.760 ,5,1,17.,24.0,0.,24.0,1.,24.0,0.,24.0
1979-08-07 22:50:08.760 ,1,1,0.,24.0,0.,24.0,1.,24.0,0.,24.0
1979-08-07 22:50:32.760 ,2,1,0.,24.0,0.,24.0,0.,24.0,0.,24.0
1979-08-07 22:50:56.760 ,6,1,0.,24.0,0.,24.0,0.,24.0,0.,24.0
1979-08-07 22:51:20.760 ,5,1,18.,24.0,1.,24.0,1.,24.0,0.,24.0
1979-08-07 22:51:44.760 ,1,1,0.,24.0,1.,24.0,0.,24.0,0.,24.0
1979-08-07 22:52:08.760 ,2,1,0.,24.0,0.,24.0,1.,24.0,0.,24.0
1979-08-07 22:52:32.760 ,6,1,1.,24.0,0.,24.0,1.,24.0,0.,24.0
1979-08-07 22:52:56.760 ,5,1,17.,24.0,0.,24.0,0.,24.0,0.,24.0
1979-08-07 22:53:20.760 ,1,1,0.,24.0,0.,24.0,1.,24.0,0.,24.0
1979-08-07 22:53:44.760 ,0,0,0.,24.0,0.,24.0,1.,24.0,0.,24.0
1979-08-07 22:54:08.760 ,0,0,0.,24.0,0.,24.0,0.,24.0,0.,24.0
1979-08-07 22:54:32.760 ,5,1,14.,24.0,0.,24.0,0.,24.0,0.,24.0
1979-08-07 22:54:56.760 ,5,0,1.,24.0,0.,24.0,0.,24.0,0.,24.0
1979-08-07 22:55:20.760 ,4,1,0.,24.0,0.,24.0,0.,24.0,0.,24.0
1979-08-07 22:55:44.760 ,4,0,0.,24.0,0.,24.0,0.,24.0,0.,24.0
1979-08-07 22:56:08.760 ,3,1,0.,24.0,0.,24.0,1.,24.0,0.,24.0
1979-08-07 22:56:32.760 ,3,0,1.,24.0,0.,24.0,1.,24.0,0.,24.0
1979-08-07 22:56:56.760 ,2,1,0.,24.0,0.,24.0,0.,24.0,0.,24.0
1979-08-07 22:57:20.760 ,2,0,0.,24.0,0.,24.0,1.,24.0,0.,24.0
1979-08-07 22:57:44.760 ,1,1,0.,24.0,0.,24.0,1.,24.0,0.,24.0
1979-08-07 22:58:08.760 ,1,0,0.,24.0,0.,24.0,0.,24.0,0.,24.0
1979-08-07 22:58:32.760 ,0,1,0.,24.0,0.,24.0,4.,24.0,0.,24.0
1979-08-07 22:58:56.760 ,0,0,0.,24.0,0.,24.0,0.,24.0,0.,24.0
1979-08-07 22:59:20.760 ,0,1,0.,24.0,0.,24.0,1.,24.0,0.,24.0
1979-08-07 22:59:44.760 ,0,0,0.,24.0,0.,24.0,0.,24.0,0.,24.0
1979-08-07 23:00:08.760 ,1,1,0.,24.0,0.,24.0,1.,24.0,0.,24.0
1979-08-07 23:00:32.760 ,1,0,0.,24.0,0.,24.0,1.,24.0,0.,24.0
1979-08-07 23:00:56.760 ,2,1,0.,24.0,0.,24.0,1.,24.0,0.,24.0
1979-08-07 23:01:20.760 ,2,0,0.,24.0,0.,24.0,4.,24.0,0.,24.0
1979-08-07 23:01:44.760 ,3,1,0.,24.0,0.,24.0,0.,24.0,0.,24.0
1979-08-07 23:02:08.760 ,3,0,0.,24.0,0.,24.0,1.,24.0,0.,24.0
1979-08-07 23:02:32.760 ,4,1,0.,24.0,0.,24.0,1.,24.0,0.,24.0
1979-08-07 23:02:56.760 ,4,0,0.,24.0,0.,24.0,1.,24.0,0.,24.0
1979-08-07 23:04:08.760 ,0,0,0.,24.0,0.,24.0,1.,24.0,0.,24.0
1979-08-07 23:04:32.760 ,0,0,0.,24.0,0.,24.0,1.,24.0,0.,24.0
1979-08-07 23:04:56.760 ,7,1,9.,24.0,0.,24.0,0.,24.0,0.,24.0
1979-08-07 23:05:20.760 ,7,0,36.,24.0,0.,24.0,1.,24.0,0.,24.0
1979-08-07 23:06:32.760 ,0,0,11.,24.0,0.,24.0,2.,24.0,0.,24.0
1979-08-07 23:06:56.760 ,0,0,0.,24.0,0.,24.0,0.,24.0,0.,24.0
1979-08-07 23:07:20.760 ,5,1,0.,24.0,0.,24.0,2.,24.0,0.,24.0
1979-08-07 23:07:44.760 ,5,0,0.,24.0,1.,24.0,1.,24.0,0.,24.0
1979-08-07 23:08:08.760 ,4,1,0.,24.0,0.,24.0,0.,24.0,0.,24.0
1979-08-07 23:08:32.760 ,4,0,0.,24.0,0.,24.0,3.,24.0,0.,24.0
1979-08-07 23:08:56.760 ,3,1,1.,24.0,0.,24.0,0.,24.0,0.,24.0
1979-08-07 23:09:20.760 ,3,0,0.,24.0,0.,24.0,1.,24.0,0.,24.0
1979-08-07 23:09:44.760 ,2,1,1.,24.0,0.,24.0,0.,24.0,0.,24.0
1979-08-07 23:10:08.760 ,2,0,0.,24.0,0.,24.0,2.,24.0,0.,24.0
1979-08-07 23:10:32.760 ,1,1,0.,24.0,0.,24.0,0.,24.0,0.,24.0
1979-08-07 23:10:56.760 ,1,0,1.,24.0,0.,24.0,0.,24.0,0.,24.0
1979-08-07 23:11:20.760 ,0,1,1.,24.0,0.,24.0,1.,24.0,0.,24.0
1979-08-07 23:11:44.760 ,0,0,0.,24.0,0.,24.0,1.,24.0,0.,24.0
1979-08-07 23:12:08.760 ,0,1,0.,24.0,0.,24.0,1.,24.0,0.,24.0
1979-08-07 23:13:20.760 ,1,0,0.,24.0,0.,24.0,1.,24.0,0.,24.0
1979-08-07 23:13:44.760 ,2,1,0.,24.0,0.,24.0,1.,24.0,0.,24.0
1979-08-07 23:14:08.760 ,2,0,0.,24.0,0.,24.0,1.,24.0,0.,24.0
1979-08-07 23:14:32.760 ,3,1,0.,24.0,0.,24.0,1.,24.0,0.,24.0
1979-08-07 23:14:56.760 ,3,0,1.,24.0,0.,24.0,1.,24.0,0.,24.0
1979-08-07 23:15:20.760 ,4,1,0.,24.0,0.,24.0,2.,24.0,0.,24.0
1979-08-07 23:15:44.760 ,4,0,1.,24.0,0.,24.0,1.,24.0,0.,24.0
1979-08-07 23:16:08.760 ,5,1,0.,24.0,0.,24.0,0.,24.0,0.,24.0
1979-08-07 23:16:32.760 ,5,0,0.,24.0,0.,24.0,1.,24.0,0.,24.0
1979-08-07 23:16:56.760 ,6,1,0.,24.0,1.,24.0,0.,24.0,0.,24.0
1979-08-07 23:17:20.760 ,6,0,0.,24.0,0.,24.0,3.,24.0,0.,24.0
1979-08-07 23:17:44.760 ,7,1,9.,24.0,0.,24.0,2.,24.0,0.,24.0
1979-08-07 23:18:08.760 ,7,0,30.,24.0,0.,24.0,1.,24.0,0.,24.0
1979-08-07 23:18:32.760 ,7,1,34.,24.0,0.,24.0,0.,24.0,0.,24.0
1979-08-07 23:18:56.760 ,7,0,33.,24.0,0.,24.0,1.,24.0,0.,24.0
1979-08-07 23:19:20.760 ,6,1,28.,24.0,0.,24.0,1.,24.0,0.,24.0
1979-08-07 23:19:44.760 ,6,0,0.,24.0,0.,24.0,0.,24.0,0.,24.0
1979-08-07 23:20:08.760 ,5,1,0.,24.0,0.,24.0,2.,24.0,0.,24.0
1979-08-07 23:20:32.760 ,5,0,0.,24.0,0.,24.0,1.,24.0,0.,24.0
1979-08-07 23:20:56.760 ,4,1,1.,24.0,0.,24.0,1.,24.0,0.,24.0
1979-08-07 23:21:20.760 ,4,0,0.,24.0,0.,24.0,2.,24.0,0.,24.0
1979-08-07 23:21:44.760 ,3,1,0.,24.0,0.,24.0,2.,24.0,0.,24.0
1979-08-07 23:22:08.760 ,3,0,0.,24.0,0.,24.0,1.,24.0,0.,24.0
1979-08-07 23:22:32.760 ,2,1,0.,24.0,0.,24.0,2.,24.0,0.,24.0
1979-08-07 23:22:56.760 ,2,0,0.,24.0,0.,24.0,1.,24.0,0.,24.0
1979-08-07 23:23:20.760 ,1,1,0.,24.0,0.,24.0,2.,24.0,0.,24.0
1979-08-07 23:23:44.760 ,1,0,0.,24.0,0.,24.0,1.,24.0,0.,24.0
1979-08-07 23:24:08.760 ,0,1,0.,24.0,0.,24.0,0.,24.0,0.,24.0
1979-08-07 23:24:32.760 ,0,0,0.,24.0,0.,24.0,1.,24.0,0.,24.0
1979-08-07 23:24:56.760 ,0,1,0.,24.0,0.,24.0,4.,24.0,0.,24.0
1979-08-07 23:25:20.760 ,0,0,0.,24.0,0.,24.0,0.,24.0,0.,24.0
1979-08-07 23:25:44.760 ,1,1,0.,24.0,0.,24.0,2.,24.0,0.,24.0
1979-08-07 23:26:08.760 ,1,0,0.,24.0,0.,24.0,1.,24.0,0.,24.0
1979-08-07 23:26:32.760 ,2,1,0.,24.0,0.,24.0,3.,24.0,0.,24.0
1979-08-07 23:26:56.760 ,2,0,0.,24.0,0.,24.0,0.,24.0,0.,24.0
1979-08-07 23:27:20.760 ,3,1,1.,24.0,0.,24.0,3.,24.0,0.,24.0
1979-08-07 23:27:44.760 ,3,0,0.,24.0,0.,24.0,1.,24.0,0.,24.0
1979-08-07 23:28:08.760 ,4,1,1.,24.0,0.,24.0,0.,24.0,0.,24.0
1979-08-07 23:28:32.760 ,4,0,0.,24.0,0.,24.0,1.,24.0,0.,24.0
1979-08-07 23:28:56.760 ,5,1,1.,24.0,0.,24.0,2.,24.0,0.,24.0
1979-08-07 23:29:20.760 ,5,0,0.,24.0,0.,24.0,1.,24.0,0.,24.0
1979-08-07 23:29:44.760 ,6,1,0.,24.0,0.,24.0,1.,24.0,0.,24.0
1979-08-07 23:30:08.760 ,6,0,0.,24.0,0.,24.0,1.,24.0,0.,24.0
1979-08-07 23:30:32.760 ,7,0,11.,24.0,0.,24.0,1.,24.0,0.,24.0
1979-08-07 23:30:56.760 ,7,0,26.,24.0,0.,24.0,2.,24.0,0.,24.0
1979-08-07 23:31:20.760 ,5,1,13.,24.0,0.,24.0,0.,24.0,0.,24.0
1979-08-07 23:31:44.760 ,1,1,0.,24.0,0.,24.0,0.,24.0,0.,24.0
1979-08-07 23:32:08.760 ,2,1,0.,24.0,0.,24.0,3.,24.0,0.,24.0
1979-08-07 23:32:32.760 ,6,1,0.,24.0,0.,24.0,0.,24.0,0.,24.0
1979-08-07 23:32:56.760 ,5,1,23.,24.0,0.,24.0,3.,24.0,0.,24.0
1979-08-07 23:33:20.760 ,1,1,0.,24.0,0.,24.0,2.,24.0,0.,24.0
1979-08-07 23:33:44.760 ,2,1,1.,24.0,0.,24.0,3.,24.0,0.,24.0
1979-08-07 23:34:08.760 ,6,1,0.,24.0,0.,24.0,3.,24.0,0.,24.0
1979-08-07 23:34:32.760 ,5,1,17.,24.0,0.,24.0,0.,24.0,0.,24.0
1979-08-07 23:34:56.760 ,1,1,0.,24.0,0.,24.0,1.,24.0,0.,24.0
1979-08-07 23:35:20.760 ,2,1,0.,24.0,0.,24.0,4.,24.0,0.,24.0
1979-08-07 23:35:44.760 ,6,1,0.,24.0,0.,24.0,3.,24.0,0.,24.0
1979-08-07 23:36:08.760 ,5,1,17.,24.0,0.,24.0,0.,24.0,0.,24.0
1979-08-07 23:36:32.760 ,1,1,0.,24.0,0.,24.0,3.,24.0,0.,24.0
1979-08-07 23:36:56.760 ,2,1,0.,24.0,0.,24.0,2.,24.0,0.,24.0
1979-08-07 23:37:20.760 ,6,1,0.,24.0,0.,24.0,0.,24.0,0.,24.0
1979-08-07 23:37:44.760 ,5,1,17.,24.0,0.,24.0,4.,24.0,0.,24.0
1979-08-07 23:38:08.760 ,1,1,0.,24.0,0.,24.0,2.,24.0,0.,24.0
1979-08-07 23:38:32.760 ,2,1,0.,24.0,0.,24.0,0.,24.0,0.,24.0
1979-08-07 23:38:56.760 ,6,1,0.,24.0,0.,24.0,1.,24.0,0.,24.0
1979-08-07 23:39:20.760 ,5,1,11.,24.0,0.,24.0,4.,24.0,0.,24.0
1979-08-07 23:39:44.760 ,1,1,0.,24.0,0.,24.0,2.,24.0,0.,24.0
1979-08-07 23:40:08.760 ,2,1,0.,24.0,0.,24.0,1.,24.0,0.,24.0
1979-08-07 23:40:32.760 ,6,1,0.,24.0,0.,24.0,3.,24.0,0.,24.0
1979-08-07 23:40:56.760 ,5,1,15.,24.0,0.,24.0,2.,24.0,0.,24.0
1979-08-07 23:41:20.760 ,1,1,0.,24.0,2.,24.0,0.,24.0,0.,24.0
1979-08-07 23:41:44.760 ,0,0,1.,24.0,1.,24.0,2.,24.0,0.,24.0
1979-08-07 23:42:08.760 ,0,0,0.,24.0,0.,24.0,2.,24.0,0.,24.0
1979-08-07 23:42:32.760 ,5,1,9.,24.0,0.,24.0,0.,24.0,0.,24.0
1979-08-07 23:42:56.760 ,5,0,1.,24.0,0.,24.0,2.,24.0,0.,24.0
1979-08-07 23:43:20.760 ,4,1,0.,24.0,0.,24.0,1.,24.0,0.,24.0
1979-08-07 23:43:44.760 ,4,0,0.,24.0,0.,24.0,0.,24.0,0.,24.0
1979-08-07 23:44:08.760 ,3,1,0.,24.0,0.,24.0,5.,24.0,0.,24.0
1979-08-07 23:44:32.760 ,3,0,0.,24.0,0.,24.0,0.,24.0,0.,24.0
1979-08-07 23:44:56.760 ,2,1,0.,24.0,1.,24.0,1.,24.0,0.,24.0
1979-08-07 23:45:20.760 ,2,0,0.,24.0,0.,24.0,1.,24.0,0.,24.0
1979-08-07 23:45:44.760 ,1,1,1.,24.0,0.,24.0,1.,24.0,0.,24.0
1979-08-07 23:46:08.760 ,1,0,0.,24.0,0.,24.0,0.,24.0,0.,24.0